Change the Weather History Date:

Friday, January 10, 2014

  Actual Average Record
Temperature  
Mean Temperature 38 °F -  
Max Temperature 45 °F 36 °F 75 °F (2006)
Min Temperature 32 °F 24 °F 5 °F (1982)
Degree Days  
Heating Degree Days 28    
Moisture  
Dew Point 35 °F    
Average Humidity 90    
Maximum Humidity 100    
Minimum Humidity 75    
Precipitation  
Precipitation 0.40 in - - ()
Sea Level Pressure  
Sea Level Pressure 30.34 in    
Wind  
Wind Speed 4 mph (NE)    
Max Wind Speed 8 mph    
Max Gust Speed -    
Visibility 3 miles    
Events Fog , Rain    
Averages and records for this station are not official NWS values.
T = Trace of Precipitation, MM = Missing Value Source: NWS Daily Summary

Daily Weather History Graph

Daily Weather History Graph

Search for Another Location

Airport or City:

Trip Planner

Search our weather history database for the weather conditions in past years. The results will help you decide how hot, cold, wet, or windy it might be!

Date:

Astronomy

Jan. 10, 2014 Rise Set
Actual Time 7:22 AM EST 5:04 PM EST
Civil Twilight 6:53 AM EST 5:33 PM EST
Nautical Twilight 6:20 AM EST 6:06 PM EST
Astronomical Twilight 5:48 AM EST 6:38 PM EST
Moon 1:05 PM EST (1/10) 2:29 AM EST (1/10)
Length of Visible Light 10h 40m
Length of Day
9h 41m
Waxing Gibbous, 75% of the Moon is Illuminated
Jan 10
Waxing Gibbous
Jan 15
Full
Jan 24
Last Quarter
Jan 30
New
Feb 6
First Quarter

Hourly Weather History & Observations

Time (EST) Temp. Windchill Dew Point Humidity Pressure Visibility Wind Dir Wind Speed Gust Speed Precip Events Conditions
12:52 AM 32.0 °F 28.7 °F 25.0 °F 75% 30.52 in 10.0 mi NE 3.5 mph - N/A   Overcast
1:52 AM 32.0 °F 28.7 °F 25.0 °F 75% 30.51 in 9.0 mi North 3.5 mph - N/A   Partly Cloudy
2:52 AM 33.1 °F 30.0 °F 26.1 °F 75% 30.49 in 8.0 mi NNE 3.5 mph - 0.00 in   Overcast
3:52 AM 34.0 °F 28.8 °F 28.0 °F 79% 30.48 in 8.0 mi NNW 5.8 mph - 0.00 in   Overcast
4:52 AM 34.0 °F 28.8 °F 28.0 °F 79% 30.45 in 9.0 mi NNW 5.8 mph - N/A   Overcast
5:03 AM 34.0 °F 28.8 °F 28.0 °F 79% 30.45 in 10.0 mi NNW 5.8 mph - N/A   Overcast
5:52 AM 34.0 °F 31.0 °F 28.9 °F 82% 30.43 in 10.0 mi NNW 3.5 mph - N/A   Overcast
6:26 AM 35.1 °F 32.2 °F 28.9 °F 78% 30.43 in 8.0 mi North 3.5 mph - 0.00 in Rain Light Rain
6:52 AM 35.1 °F 30.1 °F 30.0 °F 82% 30.43 in 7.0 mi NNE 5.8 mph - 0.00 in Rain Light Rain
7:52 AM 34.0 °F 27.2 °F 30.9 °F 89% 30.44 in 3.0 mi North 8.1 mph - 0.02 in Rain Light Rain
8:20 AM 34.0 °F 31.0 °F 30.9 °F 89% 30.44 in 2.5 mi North 3.5 mph - 0.02 in Rain Light Rain
8:52 AM 34.0 °F 28.0 °F 32.0 °F 92% 30.45 in 2.0 mi NNW 6.9 mph - 0.05 in Rain Light Rain
9:15 AM 34.0 °F 28.0 °F 32.0 °F 92% 30.46 in 1.5 mi NNW 6.9 mph - N/A Rain Light Rain
9:39 AM 34.0 °F 28.8 °F 32.0 °F 92% 30.46 in 1.5 mi NNW 5.8 mph - N/A Rain Light Rain
9:52 AM 35.1 °F 31.0 °F 32.0 °F 89% 30.46 in 1.5 mi North 4.6 mph - N/A Rain Light Rain
10:52 AM 35.1 °F - 33.1 °F 92% 30.44 in 1.5 mi Calm Calm - 0.03 in Rain Light Rain
11:52 AM 36.0 °F 33.3 °F 34.0 °F 93% 30.40 in 1.2 mi North 3.5 mph - 0.00 in Rain Light Rain
12:14 PM 36.0 °F 32.1 °F 34.0 °F 93% 30.39 in 0.5 mi North 4.6 mph - 0.02 in Fog , Rain Light Rain
12:47 PM 37.4 °F 34.9 °F 35.6 °F 93% 30.37 in 0.8 mi East 3.5 mph - 0.04 in Rain Light Rain
12:52 PM 37.0 °F - 35.1 °F 93% 30.37 in 0.8 mi Calm Calm - 0.04 in Rain Light Rain
1:52 PM 37.0 °F 34.5 °F 35.1 °F 93% 30.35 in 0.8 mi East 3.5 mph - 0.06 in Rain Light Rain
2:52 PM 37.9 °F - 36.0 °F 93% 30.33 in 0.8 mi Calm Calm - 0.07 in Rain Light Rain
3:52 PM 39.0 °F - 37.0 °F 93% 30.32 in 0.8 mi Calm Calm - 0.04 in Rain Light Rain
4:52 PM 39.0 °F 36.8 °F 37.0 °F 93% 30.30 in 0.8 mi SE 3.5 mph - 0.04 in Rain Light Rain
5:45 PM 39.0 °F 35.7 °F 37.9 °F 96% 30.29 in 0.8 mi SE 4.6 mph - 0.01 in   Overcast
5:52 PM 39.9 °F 36.7 °F 37.9 °F 93% 30.29 in 0.8 mi SE 4.6 mph - 0.01 in   Overcast
6:52 PM 39.0 °F 35.7 °F 37.9 °F 96% 30.28 in 0.8 mi SE 4.6 mph - 0.00 in Rain Light Rain
7:52 PM 39.0 °F 36.8 °F 37.0 °F 93% 30.26 in 0.8 mi ENE 3.5 mph - 0.04 in Rain Light Rain
8:16 PM 39.9 °F - 37.9 °F 93% 30.25 in 0.8 mi Calm Calm - 0.00 in   Overcast
8:52 PM 39.9 °F 37.8 °F 39.0 °F 97% 30.23 in 0.5 mi ESE 3.5 mph - 0.00 in Fog Fog
9:18 PM 39.9 °F 37.8 °F 37.9 °F 93% 30.22 in 0.2 mi ESE 3.5 mph - 0.00 in Fog , Rain Light Rain
9:52 PM 39.0 °F - 37.9 °F 96% 30.20 in 0.2 mi Calm Calm - 0.00 in Fog , Rain Light Rain
10:26 PM 41.0 °F 38.0 °F 39.0 °F 93% 30.18 in 0.2 mi SE 4.6 mph - 0.00 in Fog Fog
10:52 PM 41.0 °F - 39.9 °F 96% 30.17 in 0.2 mi Calm Calm - 0.00 in Fog Fog
10:59 PM 41.0 °F - 41.0 °F 100% 30.16 in 0.5 mi Calm Calm - N/A Fog Fog
11:10 PM 41.0 °F 39.0 °F 39.9 °F 96% 30.16 in 0.8 mi ESE 3.5 mph - N/A   Overcast
11:15 PM 41.0 °F 38.0 °F 39.9 °F 96% 30.15 in 1.2 mi SE 4.6 mph - N/A   Overcast
11:22 PM 42.1 °F 39.2 °F 39.9 °F 92% 30.15 in 2.0 mi SE 4.6 mph - N/A   Overcast
11:33 PM 43.0 °F 40.3 °F 42.1 °F 97% 30.14 in 4.0 mi SSE 4.6 mph - N/A   Overcast
11:52 PM 45.0 °F 42.6 °F 44.1 °F 97% 30.13 in 6.0 mi SE 4.6 mph - N/A   Overcast